• In Belarus
  • List of Countries
  • For 7 days
  • Water Temperature
  • Satellite Maps
  • Weather Map
  • Weather Widgets
  • user-avatar
    Login

    Hourly Weather Tarija

    Today, 18 July, Wednesday

    Time Temperature Precipitation Wind Pressure Humidity
    00:00 +16°C° 0 mm 2 mps 596 mmHg 64%
    01:00 +15°C° 0 mm 2 mps 596 mmHg 57%
    02:00 +15°C° 0 mm 2 mps 595 mmHg 50%
    03:00 +15°C° 0 mm 2 mps 595 mmHg 44%
    04:00 +14°C° 0 mm 2 mps 595 mmHg 38%
    05:00 +14°C° 0 mm 2 mps 595 mmHg 31%
    06:00 +15°C° 0 mm 2 mps 595 mmHg 29%
    07:00 +16°C° 0 mm 2 mps 596 mmHg 27%
    08:00 +16°C° 0 mm 3 mps 596 mmHg 25%
    09:00 +19°C° 0 mm 2 mps 597 mmHg 23%
    10:00 +23°C° 0 mm 2 mps 598 mmHg 21%
    11:00 +25°C° 0 mm 2 mps 599 mmHg 18%
    12:00 +26°C° 0 mm 3 mps 598 mmHg 20%
    13:00 +27°C° 0 mm 3 mps 598 mmHg 21%
    14:00 +27°C° 0 mm 4 mps 597 mmHg 22%
    15:00 +26°C° 0.1 mm 4 mps 596 mmHg 30%
    16:00 +25°C° 0.1 mm 4 mps 596 mmHg 38%
    17:00 +24°C° 0.1 mm 3 mps 595 mmHg 45%
    18:00 +21°C° 1.4 mm 3 mps 594 mmHg 57%
    19:00 +19°C° 1.4 mm 2 mps 594 mmHg 68%
    20:00 +18°C° 1.4 mm 1 mps 594 mmHg 80%
    21:00 +18°C° 1.3 mm 1 mps 594 mmHg 81%
    22:00 +18°C° 1.3 mm 1 mps 594 mmHg 82%
    23:00 +16°C° 1.3 mm 1 mps 595 mmHg 83%

    Tomorrow, 19 July, Thursday

    Time Temperature Precipitation Wind Pressure Humidity
    00:00 +16°C° 0.4 mm 1 mps 595 mmHg 83%
    01:00 +16°C° 0.4 mm 1 mps 594 mmHg 83%
    02:00 +16°C° 0.4 mm 2 mps 594 mmHg 82%
    03:00 +16°C° 0.2 mm 2 mps 594 mmHg 81%
    04:00 +16°C° 0.2 mm 2 mps 594 mmHg 80%
    05:00 +16°C° 0.2 mm 2 mps 594 mmHg 79%
    06:00 +16°C° 0 mm 2 mps 594 mmHg 77%
    07:00 +16°C° 0 mm 2 mps 595 mmHg 75%
    08:00 +16°C° 0 mm 2 mps 595 mmHg 73%
    09:00 +18°C° 0 mm 3 mps 596 mmHg 65%
    10:00 +20°C° 0 mm 4 mps 596 mmHg 58%
    11:00 +21°C° 0 mm 5 mps 597 mmHg 51%
    12:00 +22°C° 0.3 mm 6 mps 596 mmHg 49%
    13:00 +23°C° 0.3 mm 6 mps 595 mmHg 47%
    14:00 +23°C° 0.3 mm 7 mps 595 mmHg 46%
    15:00 +22°C° 0.3 mm 7 mps 594 mmHg 49%
    16:00 +21°C° 0.3 mm 6 mps 594 mmHg 52%
    17:00 +21°C° 0.3 mm 6 mps 593 mmHg 56%
    18:00 +19°C° 0.4 mm 5 mps 594 mmHg 61%
    19:00 +18°C° 0.4 mm 4 mps 594 mmHg 67%
    20:00 +17°C° 0.4 mm 3 mps 595 mmHg 73%
    21:00 +15°C° 0.3 mm 4 mps 595 mmHg 72%
    22:00 +15°C° 0.3 mm 4 mps 596 mmHg 71%
    23:00 +15°C° 0.3 mm 4 mps 596 mmHg 70%

    Day after tomorrow, 20 July, Friday

    Time Temperature Precipitation Wind Pressure Humidity
    00:00 +14°C° 0 mm 4 mps 596 mmHg 69%
    01:00 +14°C° 0 mm 4 mps 596 mmHg 69%
    02:00 +14°C° 0 mm 3 mps 595 mmHg 69%
    03:00 +13°C° 0 mm 3 mps 595 mmHg 70%
    04:00 +13°C° 0 mm 3 mps 595 mmHg 71%
    05:00 +12°C° 0 mm 3 mps 595 mmHg 72%
    06:00 +12°C° 0 mm 4 mps 595 mmHg 71%
    07:00 +12°C° 0 mm 4 mps 596 mmHg 69%
    08:00 +12°C° 0 mm 4 mps 596 mmHg 68%
    09:00 +13°C° 0 mm 4 mps 597 mmHg 60%
    10:00 +14°C° 0 mm 4 mps 598 mmHg 52%
    11:00 +15°C° 0 mm 5 mps 598 mmHg 43%
    12:00 +15°C° 0 mm 4 mps 598 mmHg 47%
    13:00 +16°C° 0 mm 3 mps 597 mmHg 51%
    14:00 +15°C° 0 mm 2 mps 597 mmHg 54%
    15:00 +13°C° 0 mm 3 mps 597 mmHg 59%
    16:00 +12°C° 0 mm 3 mps 596 mmHg 64%
    17:00 +12°C° 0 mm 3 mps 596 mmHg 68%
    18:00 +12°C° 0 mm 2 mps 597 mmHg 74%
    19:00 +10°C° 0 mm 2 mps 597 mmHg 80%
    20:00 +9°C° 0 mm 2 mps 598 mmHg 86%
    21:00 +9°C° 0 mm 1 mps 598 mmHg 87%
    22:00 +9°C° 0 mm 1 mps 598 mmHg 88%
    23:00 +9°C° 0 mm 1 mps 599 mmHg 88%

    21 July, Saturday

    Time Temperature Precipitation Wind Pressure Humidity
    00:00 +9°C° 0 mm 1 mps 598 mmHg 89%
    01:00 +9°C° 0 mm 1 mps 598 mmHg 89%
    02:00 +8°C° 0 mm 1 mps 598 mmHg 90%
    03:00 +8°C° 0 mm 1 mps 598 mmHg 89%
    04:00 +8°C° 0 mm 1 mps 597 mmHg 89%
    05:00 +8°C° 0 mm 1 mps 597 mmHg 88%
    06:00 +9°C° 0 mm 1 mps 598 mmHg 84%
    07:00 +9°C° 0 mm 1 mps 598 mmHg 81%
    08:00 +10°C° 0 mm 1 mps 599 mmHg 77%
    09:00 +12°C° 0 mm 2 mps 599 mmHg 69%
    10:00 +13°C° 0 mm 2 mps 599 mmHg 62%
    11:00 +15°C° 0 mm 2 mps 600 mmHg 54%
    12:00 +16°C° 0 mm 3 mps 599 mmHg 51%
    13:00 +17°C° 0 mm 3 mps 598 mmHg 49%
    14:00 +18°C° 0 mm 3 mps 598 mmHg 46%
    15:00 +17°C° 0 mm 3 mps 597 mmHg 47%
    16:00 +17°C° 0 mm 3 mps 597 mmHg 48%
    17:00 +16°C° 0 mm 3 mps 596 mmHg 49%
    18:00 +14°C° 0 mm 3 mps 596 mmHg 52%
    19:00 +13°C° 0 mm 3 mps 596 mmHg 56%
    20:00 +13°C° 0 mm 3 mps 596 mmHg 59%
    21:00 +13°C° 0 mm 3 mps 596 mmHg 55%
    22:00 +13°C° 0 mm 3 mps 596 mmHg 50%
    23:00 +13°C° 0 mm 3 mps 596 mmHg 45%

    22 July, Sunday

    Time Temperature Precipitation Wind Pressure Humidity
    00:00 +14°C° 0 mm 3 mps 596 mmHg 41%
    01:00 +14°C° 0 mm 3 mps 596 mmHg 37%
    02:00 +14°C° 0 mm 3 mps 595 mmHg 34%
    03:00 +14°C° 0 mm 3 mps 595 mmHg 36%
    04:00 +14°C° 0 mm 3 mps 595 mmHg 38%
    05:00 +14°C° 0 mm 4 mps 595 mmHg 40%
    06:00 +14°C° 0 mm 4 mps 595 mmHg 41%
    07:00 +15°C° 0 mm 4 mps 595 mmHg 42%
    08:00 +15°C° 0 mm 4 mps 596 mmHg 43%
    09:00 +19°C° 0 mm 6 mps 597 mmHg 34%
    10:00 +21°C° 0 mm 7 mps 597 mmHg 25%
    11:00 +24°C° 0 mm 8 mps 598 mmHg 16%
    12:00 +24°C° 0 mm 7 mps 598 mmHg 14%
    13:00 +26°C° 0 mm 5 mps 597 mmHg 11%
    14:00 +27°C° 0 mm 4 mps 597 mmHg 8%
    15:00 +26°C° 0 mm 3 mps 597 mmHg 11%
    16:00 +25°C° 0 mm 3 mps 596 mmHg 13%
    17:00 +25°C° 0 mm 2 mps 596 mmHg 15%
    18:00 +21°C° 0 mm 2 mps 596 mmHg 26%
    19:00 +19°C° 0 mm 1 mps 595 mmHg 36%
    20:00 +15°C° 0 mm 1 mps 595 mmHg 46%
    21:00 +14°C° 0 mm 1 mps 595 mmHg 48%
    22:00 +14°C° 0 mm 1 mps 596 mmHg 49%
    23:00 +13°C° 0 mm 1 mps 596 mmHg 51%

    23 July, Monday

    Time Temperature Precipitation Wind Pressure Humidity
    00:00 +13°C° 0 mm 1 mps 596 mmHg 50%
    01:00 +12°C° 0 mm 1 mps 595 mmHg 49%
    02:00 +12°C° 0 mm 1 mps 595 mmHg 49%
    03:00 +11°C° 0 mm 1 mps 595 mmHg 46%
    04:00 +10°C° 0 mm 2 mps 595 mmHg 43%
    05:00 +9°C° 0 mm 2 mps 595 mmHg 40%
    06:00 +10°C° 0 mm 2 mps 596 mmHg 36%
    07:00 +12°C° 0 mm 2 mps 597 mmHg 32%
    08:00 +13°C° 0 mm 2 mps 598 mmHg 28%
    09:00 +15°C° 0 mm 2 mps 599 mmHg 24%
    10:00 +18°C° 0 mm 2 mps 599 mmHg 21%
    11:00 +20°C° 0 mm 2 mps 600 mmHg 17%
    12:00 +21°C° 0 mm 3 mps 600 mmHg 17%
    13:00 +22°C° 0 mm 3 mps 599 mmHg 17%
    14:00 +23°C° 0 mm 4 mps 599 mmHg 17%
    15:00 +21°C° 0 mm 3 mps 599 mmHg 22%
    16:00 +20°C° 0 mm 3 mps 598 mmHg 28%
    17:00 +19°C° 0 mm 3 mps 598 mmHg 34%
    18:00 +16°C° 0 mm 3 mps 598 mmHg 46%
    19:00 +14°C° 0 mm 2 mps 598 mmHg 59%
    20:00 +10°C° 0 mm 2 mps 598 mmHg 71%
    21:00 +10°C° 0 mm 2 mps 598 mmHg 76%
    22:00 +9°C° 0 mm 2 mps 598 mmHg 81%
    23:00 +8°C° 0 mm 2 mps 598 mmHg 85%
    Show more